Regional Weather Roundup
Issued by NWS

Home | Current Version | Previous Version | Text Only | Print | Product List | Glossary On
Versions: 1 2 3 4 5 6 7 8 9 10 11 12 13 14 15 16 17 18 19 20 21 22 23 24 25 26 27 28 29 30 31 32 33 34 35 36 37 38 39 40 41 42 43 44 45 46 47 48 49 50
000
ASUS43 KMPX 201601
RWRMN
WEATHER ROUNDUP FOR MINNESOTA
NATIONAL WEATHER SERVICE TWIN CITIES/CHANHASSEN MN
1100 AM CDT SUN APR 20 2014


NOTE: "FAIR" INDICATES FEW OR NO CLOUDS BELOW 12,000 FEET WITH NO
SIGNIFICANT WEATHER AND/OR OBSTRUCTIONS TO VISIBILITY. N/A MEANS
CURRENT SKY AND/OR WEATHER CONDITIONS ARE NOT AVAILABLE.

MNZ060>063-068>070-201700-
   Twin Cities Metro

CITY           SKY/WX    TMP DP  RH WIND       PRES   REMARKS
TWIN CITIES    PTSUNNY   63  41  44 E6        30.04S
ST PAUL        MOSUNNY   64  45  49 CALM      30.04F
CRYSTAL        SUNNY     64  44  48 S6        30.03S
BLAINE         SUNNY     64  45  48 S3        30.03F
EDEN PRAIRIE   PTSUNNY   65  44  46 NE5       30.02F
LAKEVILLE      MOSUNNY   59  54  82 SE7       30.05R HAZE
SOUTH ST PAUL  MOSUNNY   67  39  35 E3        30.03S
LAKE ELMO      FAIR      63  46  55 NE3       30.05S
$$
MNZ001>005-007-008-013>017-022>024-027-028-201700-
   Northwest Minnesota

CITY           SKY/WX    TMP DP  RH WIND       PRES   REMARKS
BEMIDJI        SUNNY     55  33  42 SE6       30.01F
HALLOCK        CLOUDY    46  36  66 SE3       30.02F
ROSEAU         SUNNY     46  36  66 CALM      30.03F
WARROAD        SUNNY     45  36  70 S3        30.04S
THIEF RVR FALL SUNNY     50  34  53 CALM      30.04R
CROOKSTON      SUNNY     52  37  58 SW7       30.03S
FOSSTON        SUNNY     57  34  41 CALM      30.01S
DETROIT LAKES  SUNNY     59  34  38 S9        30.02S
MOORHEAD       SUNNY     55  39  54 S6        30.02S
PARK RAPIDS    SUNNY     57  32  38 S6        30.02S
$$
MNZ006-009>011-018-025>026-201700-
   North Central Minnesota

CITY           SKY/WX    TMP DP  RH WIND       PRES   REMARKS
BAUDETTE       SUNNY     45  33  63 SE3       30.04S
FLAG ISLAND    SUNNY     36  30  80 SE8       30.02F
INTL FALLS     SUNNY     47  32  56 VRB6      30.03F
WASKISH        SUNNY     48  37  66 NW3       30.04S
BIG FORK       SUNNY     55  34  44 S3        30.03F
LONGVILLE      SUNNY     57  30  35 E3        30.03S
GRAND RAPIDS   SUNNY     54  34  47 CALM      30.04S
CRANE LAKE     SUNNY     52  46  82 CALM      30.05S
ORR            SUNNY     50  32  50 NW3       30.01F
COOK           SUNNY     50  36  57 CALM      30.04S
$$
MNZ012-019>021-037-201700-
   Northeast Minnesota

CITY           SKY/WX    TMP DP  RH WIND       PRES   REMARKS
DULUTH         SUNNY     55  35  47 W3        30.03S
ELY            SUNNY     52  32  46 W5        30.03S
HIBBING        SUNNY     54  35  48 NW6       30.03F
EVELETH        SUNNY     52  34  50 NW6       30.05R
DULUTH HARBOR  SUNNY     39  34  81 CALM      30.06R
TWO HARBORS    SUNNY     54  36  50 W5        30.01S
SILVER BAY     SUNNY     52  39  62 CALM      30.01S
GRAND MARAIS     N/A     43  34  70 W7        30.03R
G MARAIS ARPRT SUNNY     54  28  37 NW5       30.01S
$$
MNZ029>031-032-039>041-046>048-054>057-064-201700-
   West Central Minnesota

CITY           SKY/WX    TMP DP  RH WIND       PRES   REMARKS
FERGUS FALLS   SUNNY     61  30  31 SE7       29.99R
WHEATON        SUNNY     64  43  45 SE8       30.03F
MORRIS         SUNNY     64  37  36 E15       30.01S
ALEXANDRIA     SUNNY     60  38  43 E8        30.03F
ELBOW LAKE     FAIR      60  36  40 E7        30.02R
WADENA         SUNNY     57  36  44 SE8       30.03S
GLENWOOD       SUNNY     63  39  42 E8        30.04S
APPLETON       SUNNY     63  37  39 SE13      30.01F
BENSON         SUNNY     63  37  39 SE9       30.02F
ORTONVILLE     SUNNY     59  36  41 SE8       30.02S
MADISON        SUNNY     61  43  51 SE7       30.02S
WILLMAR        FAIR      61  39  44 E9        30.05R
$$
MNZ033>034-036-042>043-049>051-058-059-201700-
   Central Minnesota

CITY           SKY/WX    TMP DP  RH WIND       PRES   REMARKS
ST CLOUD       SUNNY     60  39  45 E7        30.04F
SAUK CENTRE    FAIR      59  38  45 E8        30.04S
PAYNESVILLE    SUNNY     59  33  38 E8        30.05S
AITKIN         SUNNY     61  34  36 N3        30.03R
PINE RIVER     SUNNY     55  37  50 SE3       30.07R
BRAINERD       SUNNY     64  32  30 VRB5      30.05R
STAPLES        SUNNY     57  30  35 CALM      30.04R
LONG PRAIRIE   FAIR      59  37  44 CALM      30.04S
LITTLE FALLS   SUNNY     59  36  41 SE3       30.04S
LITCHFIELD     SUNNY     61  43  51 NE5       30.04S
BUFFALO        SUNNY     59  43  55 NE5       30.05S
MAPLE LAKE     SUNNY     59  46  60 NE3       30.05S
$$
MNZ037-044-045-052-053-201700-
   East Central Minnesota

CITY           SKY/WX    TMP DP  RH WIND       PRES   REMARKS
PRINCETON      SUNNY     59  43  55 E5        30.05S
MORA           SUNNY     55  37  50 CALM      30.06S
CAMBRIDGE      SUNNY     57  43  58 E5        30.03S
RUSH CITY      SUNNY     52  40  64 CALM      30.06S
MOOSE LAKE     SUNNY     55  36  47 CALM      30.03R
HINCKLEY       FAIR      54  41  62 SW3       30.05S
CLOQUET        SUNNY     55  34  44 CALM      30.03F
MCGREGOR       SUNNY     55  36  47 CALM      30.04S
$$
MNZ071>073-080-081-089-090-097-098-201700-
   Southwest Minnesota

CITY           SKY/WX    TMP DP  RH WIND       PRES   REMARKS
MONTEVIDEO     SUNNY     63  45  51 SE8       30.03F
GRANITE FALLS  SUNNY     59  39  47 NE3       30.04S
CANBY          SUNNY     55  39  54 CALM      30.03S
MARSHALL       SUNNY     57  39  51 E3        30.02S
REDWOOD FALLS  SUNNY     64  44  48 S3        30.02S
OLIVIA         SUNNY     61  45  55 E5        30.02S
PIPESTONE      SUNNY     66  28  24 E15       30.00S
WINDOM         SUNNY     66  37  34 NE12G18   30.01F
WORTHINGTON    SUNNY     64  34  32 E13       30.04R
JACKSON        PTSUNNY   64  43  45 NE10      30.02R
TRACY          SUNNY     64  39  40 E6        30.02F
SLAYTON        SUNNY     65  32  28 E13       30.02F
$$
MNZ065>067-074>077-082>085-091>093-201700-
   South Central Minnesota

CITY           SKY/WX    TMP DP  RH WIND       PRES   REMARKS
MANKATO        CLOUDY    61  52  72 E7        30.04S
NEW ULM        SUNNY     63  45  51 E8        30.02S
ST JAMES       MOSUNNY   64  46  52 NE13      30.02F
FAIRMONT       CLOUDY    57  48  72 SE3       30.03S
GLENCOE        SUNNY     65  42  43 E5        30.03S
FARIBAULT      CLOUDY    64  50  59 S6        30.05S
OWATONNA       MOSUNNY   61  52  72 S7        30.05S
WASECA         CLOUDY    61  54  77 SW9       30.05F
ALBERT LEA     CLOUDY    57  55  94 SE7       30.04F FOG
$$
MNZ078>079-086>088-094>096-201700-
   Southeast Minnesota

CITY           SKY/WX    TMP DP  RH WIND       PRES   REMARKS
ROCHESTER      LGT RAIN  54  51  90 S12       30.07S FOG
RED WING       PTSUNNY   61  52  72 SE3       30.05R
STANTON        CLOUDY    61  51  70 SW5       30.04R
DODGE CENTER   PTSUNNY   59  54  82 S10       30.05
WINONA           N/A    N/A N/A N/A MISG        N/A
AUSTIN         LGT RAIN  55  52  88 S8        30.06S
PRESTON        LGT RAIN  53  51  95 S7        30.08S
$$
ABBREVIATIONS USED IN REMARKS
   TC - TEMPERATURES IN CELSIUS
  WCI - WIND CHILL INDEX
   HX - HEAT INDEX
  VSB - VISIBILITY
$$



USA.gov is the U.S. government's official web portal to all federal, state and local government web resources and services.